Time,TemperatureF,DewpointF,PressureIn,WindDirection,WindDirectionDegrees,WindSpeedMPH,WindSpeedGustMPH,Humidity,HourlyPrecipIn,Conditions,Clouds,dailyrainin,SoftwareType,DateUTC
2013-11-27 00:01:00,27.9,18.0,30.26,ESE,109,0.0,0.0,66,0.00,CLR,,0.00,WeatherDisplay:10.37,2013-11-27 07:01:00,
2013-11-27 00:06:00,27.7,17.8,30.25,ESE,109,0.0,0.0,66,0.00,CLR,,0.00,WeatherDisplay:10.37,2013-11-27 07:06:00,
2013-11-27 00:11:00,27.6,18.1,30.25,ESE,109,0.0,0.0,67,0.00,CLR,,0.00,WeatherDisplay:10.37,2013-11-27 07:11:00,
2013-11-27 00:16:00,27.4,17.9,30.25,ESE,109,0.0,0.0,67,0.00,CLR,,0.00,WeatherDisplay:10.37,2013-11-27 07:16:00,
2013-11-27 00:21:00,27.2,18.0,30.25,ESE,109,0.0,0.0,68,0.00,CLR,,0.00,WeatherDisplay:10.37,2013-11-27 07:21:00,
2013-11-27 00:26:00,27.0,17.8,30.25,ESE,109,0.0,0.0,68,0.00,CLR,,0.00,WeatherDisplay:10.37,2013-11-27 07:26:00,
2013-11-27 00:31:00,26.8,18.0,30.24,ESE,109,0.0,0.0,69,0.00,CLR,,0.00,WeatherDisplay:10.37,2013-11-27 07:31:00,
2013-11-27 00:36:00,26.6,18.1,30.24,ESE,109,0.0,0.0,70,0.00,CLR,,0.00,WeatherDisplay:10.37,2013-11-27 07:36:00,
2013-11-27 00:41:00,26.5,18.4,30.24,ESE,109,0.0,0.0,71,0.00,CLR,,0.00,WeatherDisplay:10.37,2013-11-27 07:41:00,
2013-11-27 00:46:00,26.3,18.5,30.24,ESE,109,0.0,0.0,72,0.00,CLR,,0.00,WeatherDisplay:10.37,2013-11-27 07:46:00,
2013-11-27 00:51:00,26.2,18.1,30.24,ESE,109,0.0,0.0,71,0.00,CLR,,0.00,WeatherDisplay:10.37,2013-11-27 07:51:00,
2013-11-27 00:56:00,26.0,17.9,30.24,ESE,109,0.0,0.0,71,0.00,CLR,,0.00,WeatherDisplay:10.37,2013-11-27 07:56:00,
2013-11-27 01:01:00,25.8,18.0,30.24,ESE,109,0.0,0.0,72,0.00,CLR,,0.00,WeatherDisplay:10.37,2013-11-27 08:01:00,
2013-11-27 01:06:00,25.6,17.8,30.24,ESE,109,0.0,0.0,72,0.00,CLR,,0.00,WeatherDisplay:10.37,2013-11-27 08:06:00,
2013-11-27 01:11:00,25.4,17.6,30.24,ESE,109,0.0,0.0,72,0.00,CLR,,0.00,WeatherDisplay:10.37,2013-11-27 08:11:00,
2013-11-27 01:16:00,25.3,17.2,30.24,ESE,109,0.0,0.0,71,0.00,CLR,,0.00,WeatherDisplay:10.37,2013-11-27 08:16:00,
2013-11-27 01:21:00,25.2,17.4,30.24,ESE,109,0.0,0.0,72,0.00,CLR,,0.00,WeatherDisplay:10.37,2013-11-27 08:21:00,
2013-11-27 01:27:00,25.1,17.3,30.24,ESE,109,0.0,0.0,72,0.00,CLR,,0.00,WeatherDisplay:10.37,2013-11-27 08:27:00,
2013-11-27 01:32:00,25.0,17.6,30.24,ESE,109,0.0,0.0,73,0.00,CLR,,0.00,WeatherDisplay:10.37,2013-11-27 08:32:00,
2013-11-27 01:37:00,24.8,17.4,30.24,ESE,109,0.0,0.0,73,0.00,CLR,,0.00,WeatherDisplay:10.37,2013-11-27 08:37:00,
2013-11-27 01:42:00,24.7,17.3,30.24,ESE,109,0.0,0.0,73,0.00,CLR,,0.00,WeatherDisplay:10.37,2013-11-27 08:42:00,
2013-11-27 01:47:00,24.6,17.2,30.24,ESE,109,0.0,0.0,73,0.00,CLR,,0.00,WeatherDisplay:10.37,2013-11-27 08:47:00,
2013-11-27 01:52:00,24.5,17.1,30.23,ESE,109,0.0,0.0,73,0.00,CLR,,0.00,WeatherDisplay:10.37,2013-11-27 08:52:00,
2013-11-27 01:57:00,24.4,17.3,30.23,ESE,109,0.0,0.0,74,0.00,CLR,,0.00,WeatherDisplay:10.37,2013-11-27 08:57:00,
2013-11-27 02:02:00,24.3,17.2,30.23,ESE,109,0.0,0.0,74,0.00,CLR,,0.00,WeatherDisplay:10.37,2013-11-27 09:02:00,
2013-11-27 02:07:00,24.3,17.2,30.23,ESE,109,0.0,0.0,74,0.00,CLR,,0.00,WeatherDisplay:10.37,2013-11-27 09:07:00,
2013-11-27 02:12:00,24.3,17.2,30.23,ESE,109,0.0,0.0,74,0.00,CLR,,0.00,WeatherDisplay:10.37,2013-11-27 09:12:00,
2013-11-27 02:17:00,24.2,17.1,30.23,ESE,109,0.0,0.0,74,0.00,CLR,,0.00,WeatherDisplay:10.37,2013-11-27 09:17:00,
2013-11-27 02:22:00,24.2,17.1,30.23,ESE,109,0.0,0.0,74,0.00,CLR,,0.00,WeatherDisplay:10.37,2013-11-27 09:22:00,
2013-11-27 02:27:00,24.1,17.0,30.23,ESE,109,0.0,0.0,74,0.00,CLR,,0.00,WeatherDisplay:10.37,2013-11-27 09:27:00,
2013-11-27 02:32:00,24.0,16.9,30.23,ESE,109,0.0,0.0,74,0.00,CLR,,0.00,WeatherDisplay:10.37,2013-11-27 09:32:00,
2013-11-27 02:37:00,24.0,17.2,30.23,ESE,109,0.0,0.0,75,0.00,CLR,,0.00,WeatherDisplay:10.37,2013-11-27 09:37:00,
2013-11-27 02:42:00,23.9,17.1,30.22,ESE,109,0.0,0.0,75,0.00,CLR,,0.00,WeatherDisplay:10.37,2013-11-27 09:42:00,
2013-11-27 02:47:00,23.8,17.0,30.22,ESE,109,0.0,0.0,75,0.00,CLR,,0.00,WeatherDisplay:10.37,2013-11-27 09:47:00,
2013-11-27 02:52:00,23.8,17.0,30.22,ESE,109,0.0,0.0,75,0.00,CLR,,0.00,WeatherDisplay:10.37,2013-11-27 09:52:00,
2013-11-27 02:57:00,23.7,16.9,30.22,ESE,109,0.0,0.0,75,0.00,CLR,,0.00,WeatherDisplay:10.37,2013-11-27 09:57:00,
2013-11-27 03:02:00,23.6,16.8,30.22,ESE,109,0.0,0.0,75,0.00,CLR,,0.00,WeatherDisplay:10.37,2013-11-27 10:02:00,
2013-11-27 03:07:00,23.5,17.0,30.22,ESE,109,0.0,0.0,76,0.00,CLR,,0.00,WeatherDisplay:10.37,2013-11-27 10:07:00,
2013-11-27 03:12:00,23.4,16.9,30.21,ESE,109,0.0,0.0,76,0.00,CLR,,0.00,WeatherDisplay:10.37,2013-11-27 10:12:00,
2013-11-27 03:17:00,23.4,16.9,30.21,ESE,109,0.0,0.0,76,0.00,CLR,,0.00,WeatherDisplay:10.37,2013-11-27 10:17:00,
2013-11-27 03:22:00,23.3,16.9,30.21,ESE,109,0.0,0.0,76,0.00,CLR,,0.00,WeatherDisplay:10.37,2013-11-27 10:22:00,
2013-11-27 03:27:00,23.2,17.1,30.21,ESE,109,0.0,0.0,77,0.00,CLR,,0.00,WeatherDisplay:10.37,2013-11-27 10:27:00,
2013-11-27 03:32:00,23.0,16.9,30.21,ESE,109,0.0,0.0,77,0.00,CLR,,0.00,WeatherDisplay:10.37,2013-11-27 10:32:00,
2013-11-27 03:37:00,22.9,16.8,30.21,ESE,109,0.0,0.0,77,0.00,CLR,,0.00,WeatherDisplay:10.37,2013-11-27 10:37:00,
2013-11-27 03:42:00,22.8,16.7,30.20,ESE,109,0.0,0.0,77,0.00,CLR,,0.00,WeatherDisplay:10.37,2013-11-27 10:42:00,
2013-11-27 03:47:00,22.7,16.6,30.20,ESE,109,0.0,0.0,77,0.00,CLR,,0.00,WeatherDisplay:10.37,2013-11-27 10:47:00,
2013-11-27 03:52:00,22.6,16.5,30.20,ESE,109,0.0,0.0,77,0.00,CLR,,0.00,WeatherDisplay:10.37,2013-11-27 10:52:00,
2013-11-27 03:57:00,22.5,16.4,30.20,ESE,109,0.0,0.0,77,0.00,CLR,,0.00,WeatherDisplay:10.37,2013-11-27 10:57:00,
2013-11-27 04:02:00,22.5,16.7,30.20,ESE,109,0.0,0.0,78,0.00,CLR,,0.00,WeatherDisplay:10.37,2013-11-27 11:02:00,
2013-11-27 04:07:00,22.4,16.6,30.20,ESE,109,0.0,0.0,78,0.00,CLR,,0.00,WeatherDisplay:10.37,2013-11-27 11:07:00,
2013-11-27 04:12:00,22.3,16.5,30.20,ESE,109,0.0,0.0,78,0.00,CLR,,0.00,WeatherDisplay:10.37,2013-11-27 11:12:00,
2013-11-27 04:17:00,22.2,16.4,30.20,ESE,109,0.0,0.0,78,0.00,CLR,,0.00,WeatherDisplay:10.37,2013-11-27 11:17:00,
2013-11-27 04:22:00,22.2,16.4,30.20,ESE,109,0.0,0.0,78,0.00,CLR,,0.00,WeatherDisplay:10.37,2013-11-27 11:22:00,
2013-11-27 04:27:00,22.1,16.3,30.20,ESE,109,0.0,0.0,78,0.00,CLR,,0.00,WeatherDisplay:10.37,2013-11-27 11:27:00,
2013-11-27 04:32:00,22.0,16.2,30.20,ESE,109,0.0,0.0,78,0.00,CLR,,0.00,WeatherDisplay:10.37,2013-11-27 11:32:00,
2013-11-27 04:37:00,22.0,16.2,30.20,ESE,109,0.0,0.0,78,0.00,CLR,,0.00,WeatherDisplay:10.37,2013-11-27 11:37:00,
2013-11-27 04:42:00,22.0,16.2,30.20,ESE,109,0.0,0.0,78,0.00,CLR,,0.00,WeatherDisplay:10.37,2013-11-27 11:42:00,
2013-11-27 04:47:00,22.0,16.2,30.19,ESE,109,0.0,0.0,78,0.00,CLR,,0.00,WeatherDisplay:10.37,2013-11-27 11:47:00,
2013-11-27 04:52:00,21.9,16.1,30.20,ESE,109,0.0,0.0,78,0.00,CLR,,0.00,WeatherDisplay:10.37,2013-11-27 11:52:00,
2013-11-27 04:57:00,21.9,16.1,30.19,ESE,109,0.0,0.0,78,0.00,CLR,,0.00,WeatherDisplay:10.37,2013-11-27 11:57:00,
2013-11-27 05:02:00,21.8,16.0,30.19,ESE,109,0.0,0.0,78,0.00,CLR,,0.00,WeatherDisplay:10.37,2013-11-27 12:02:00,
2013-11-27 05:07:00,21.8,16.0,30.19,ESE,109,0.0,0.0,78,0.00,CLR,,0.00,WeatherDisplay:10.37,2013-11-27 12:07:00,
2013-11-27 05:12:00,21.8,16.0,30.19,ESE,109,0.0,0.0,78,0.00,CLR,,0.00,WeatherDisplay:10.37,2013-11-27 12:12:00,
2013-11-27 05:17:00,21.8,16.0,30.19,ESE,109,0.0,0.0,78,0.00,CLR,,0.00,WeatherDisplay:10.37,2013-11-27 12:17:00,
2013-11-27 05:22:00,21.8,16.3,30.19,ESE,109,0.0,0.0,79,0.00,CLR,,0.00,WeatherDisplay:10.37,2013-11-27 12:22:00,
2013-11-27 05:27:00,21.8,16.3,30.19,ESE,109,0.0,0.0,79,0.00,CLR,,0.00,WeatherDisplay:10.37,2013-11-27 12:27:00,
2013-11-27 05:32:00,21.8,16.3,30.19,ESE,109,0.0,0.0,79,0.00,CLR,,0.00,WeatherDisplay:10.37,2013-11-27 12:32:00,
2013-11-27 05:37:00,21.9,16.4,30.18,ESE,109,0.0,0.0,79,0.00,CLR,,0.00,WeatherDisplay:10.37,2013-11-27 12:37:00,
2013-11-27 05:42:00,21.9,16.4,30.19,ESE,109,0.0,0.0,79,0.00,CLR,,0.00,WeatherDisplay:10.37,2013-11-27 12:42:00,
2013-11-27 05:47:00,21.9,16.4,30.18,ESE,109,0.0,0.0,79,0.00,CLR,,0.00,WeatherDisplay:10.37,2013-11-27 12:47:00,
2013-11-27 05:52:00,21.9,16.4,30.18,ESE,109,0.0,0.0,79,0.00,CLR,,0.00,WeatherDisplay:10.37,2013-11-27 12:52:00,
2013-11-27 05:57:00,21.8,16.3,30.18,ESE,109,0.0,0.0,79,0.00,CLR,,0.00,WeatherDisplay:10.37,2013-11-27 12:57:00,
2013-11-27 06:02:00,21.8,16.3,30.18,ESE,109,0.0,0.0,79,0.00,CLR,,0.00,WeatherDisplay:10.37,2013-11-27 13:02:00,
2013-11-27 06:07:00,21.8,16.3,30.18,ESE,109,0.0,0.0,79,0.00,CLR,,0.00,WeatherDisplay:10.37,2013-11-27 13:07:00,
2013-11-27 06:12:00,21.8,16.3,30.18,ESE,109,0.0,0.0,79,0.00,CLR,,0.00,WeatherDisplay:10.37,2013-11-27 13:12:00,
2013-11-27 06:17:00,21.7,16.2,30.18,ESE,109,0.0,0.0,79,0.00,CLR,,0.00,WeatherDisplay:10.37,2013-11-27 13:17:00,
2013-11-27 06:22:00,21.7,16.5,30.18,ESE,109,0.0,0.0,80,0.00,CLR,,0.00,WeatherDisplay:10.37,2013-11-27 13:22:00,
2013-11-27 06:27:00,21.7,16.5,30.18,ESE,109,0.0,0.0,80,0.00,CLR,,0.00,WeatherDisplay:10.37,2013-11-27 13:27:00,
2013-11-27 06:32:00,21.8,16.6,30.18,ESE,109,0.0,0.0,80,0.00,CLR,,0.00,WeatherDisplay:10.37,2013-11-27 13:32:00,
2013-11-27 06:37:00,21.7,16.5,30.18,ESE,109,0.0,0.0,80,0.00,CLR,,0.00,WeatherDisplay:10.37,2013-11-27 13:37:00,
2013-11-27 06:42:00,21.7,16.5,30.17,ESE,109,0.0,0.0,80,0.00,CLR,,0.00,WeatherDisplay:10.37,2013-11-27 13:42:00,
2013-11-27 06:47:00,21.7,16.5,30.18,ESE,109,0.0,0.0,80,0.00,CLR,,0.00,WeatherDisplay:10.37,2013-11-27 13:47:00,
2013-11-27 06:52:00,21.7,16.5,30.17,ESE,109,0.0,0.0,80,0.00,CLR,,0.00,WeatherDisplay:10.37,2013-11-27 13:52:00,
2013-11-27 06:57:00,21.7,16.5,30.17,ESE,109,0.0,0.0,80,0.00,CLR,,0.00,WeatherDisplay:10.37,2013-11-27 13:57:00,
2013-11-27 07:03:00,21.7,16.5,30.16,ESE,109,0.0,0.0,80,0.00,SKC,,0.00,WeatherDisplay:10.37,2013-11-27 14:03:00,
2013-11-27 07:08:00,21.8,16.6,30.17,ESE,109,0.0,0.0,80,0.00,SKC,,0.00,WeatherDisplay:10.37,2013-11-27 14:08:00,
2013-11-27 07:13:00,21.8,16.6,30.17,ESE,109,0.0,0.0,80,0.00,SKC,,0.00,WeatherDisplay:10.37,2013-11-27 14:13:00,
2013-11-27 07:18:00,21.8,16.6,30.17,ESE,109,0.0,0.0,80,0.00,SKC,,0.00,WeatherDisplay:10.37,2013-11-27 14:18:00,
2013-11-27 07:23:00,21.9,16.7,30.17,ESE,109,0.0,0.0,80,0.00,SKC,,0.00,WeatherDisplay:10.37,2013-11-27 14:23:00,
2013-11-27 07:28:00,22.0,16.8,30.17,ESE,109,0.0,0.0,80,0.00,SKC,,0.00,WeatherDisplay:10.37,2013-11-27 14:28:00,
2013-11-27 07:33:00,22.1,16.9,30.17,ESE,109,0.0,0.0,80,0.00,SKC,,0.00,WeatherDisplay:10.37,2013-11-27 14:33:00,
2013-11-27 07:38:00,22.2,17.0,30.17,ESE,109,0.0,0.0,80,0.00,SKC,,0.00,WeatherDisplay:10.37,2013-11-27 14:38:00,
2013-11-27 07:43:00,22.3,17.4,30.17,ESE,109,0.0,0.0,81,0.00,SKC,,0.00,WeatherDisplay:10.37,2013-11-27 14:43:00,
2013-11-27 07:48:00,22.5,17.5,30.18,ESE,109,0.0,0.0,81,0.00,SKC,,0.00,WeatherDisplay:10.37,2013-11-27 14:48:00,
2013-11-27 07:53:00,22.8,17.8,30.17,ESE,109,0.0,0.0,81,0.00,SKC,,0.00,WeatherDisplay:10.37,2013-11-27 14:53:00,
2013-11-27 07:58:00,23.1,18.1,30.17,ESE,109,0.0,0.0,81,0.00,SKC,,0.00,WeatherDisplay:10.37,2013-11-27 14:58:00,
2013-11-27 08:03:00,23.4,18.4,30.17,ESE,109,0.0,0.0,81,0.00,SCT,,0.00,WeatherDisplay:10.37,2013-11-27 15:03:00,
2013-11-27 08:08:00,23.6,18.6,30.17,ESE,109,0.0,0.0,81,0.00,SCT,,0.00,WeatherDisplay:10.37,2013-11-27 15:08:00,
2013-11-27 08:13:00,24.0,18.7,30.17,ESE,109,0.0,0.0,80,0.00,SCT,,0.00,WeatherDisplay:10.37,2013-11-27 15:13:00,
2013-11-27 08:18:00,24.4,19.1,30.17,ESE,109,0.0,0.0,80,0.00,SCT,,0.00,WeatherDisplay:10.37,2013-11-27 15:18:00,
2013-11-27 08:23:00,25.0,19.4,30.16,ESE,109,0.0,0.0,79,0.00,SCT,,0.00,WeatherDisplay:10.37,2013-11-27 15:23:00,
2013-11-27 08:28:00,25.7,19.8,30.17,ESE,109,0.0,0.0,78,0.00,SCT,,0.00,WeatherDisplay:10.37,2013-11-27 15:28:00,
2013-11-27 08:33:00,26.8,20.2,30.17,ESE,109,2.3,0.0,76,0.00,SCT,,0.00,WeatherDisplay:10.37,2013-11-27 15:33:00,
2013-11-27 08:38:00,28.0,20.8,30.16,ESE,109,0.0,0.0,74,0.00,SCT,,0.00,WeatherDisplay:10.37,2013-11-27 15:38:00,
2013-11-27 08:43:00,29.2,21.3,30.16,ESE,109,2.3,2.3,72,0.00,SCT,,0.00,WeatherDisplay:10.37,2013-11-27 15:43:00,
2013-11-27 08:48:00,30.4,21.1,30.16,ESE,109,3.0,3.0,68,0.00,SCT,,0.00,WeatherDisplay:10.37,2013-11-27 15:48:00,
2013-11-27 08:53:00,31.6,20.8,30.15,ESE,109,3.5,3.5,64,0.00,SCT,,0.00,WeatherDisplay:10.37,2013-11-27 15:53:00,
2013-11-27 08:58:00,33.0,21.0,30.16,ESE,109,0.0,0.0,61,0.00,SCT,,0.00,WeatherDisplay:10.37,2013-11-27 15:58:00,
2013-11-27 09:03:00,34.1,20.9,30.15,ESE,109,3.5,3.5,58,0.00,FEW,,0.00,WeatherDisplay:10.37,2013-11-27 16:03:00,
2013-11-27 09:08:00,35.1,21.0,30.15,ESE,109,2.3,2.3,56,0.00,FEW,,0.00,WeatherDisplay:10.37,2013-11-27 16:08:00,
2013-11-27 09:13:00,36.1,20.6,30.15,ESE,109,3.5,3.5,53,0.00,FEW,,0.00,WeatherDisplay:10.37,2013-11-27 16:13:00,
2013-11-27 09:18:00,37.1,20.6,30.15,ESE,109,3.5,3.5,51,0.00,FEW,,0.00,WeatherDisplay:10.37,2013-11-27 16:18:00,
2013-11-27 09:23:00,38.0,21.0,30.14,ESE,109,3.5,3.5,50,0.00,FEW,,0.00,WeatherDisplay:10.37,2013-11-27 16:23:00,
2013-11-27 09:28:00,38.8,20.3,30.14,ESE,115,3.5,3.5,47,0.00,FEW,,0.00,WeatherDisplay:10.37,2013-11-27 16:28:00,
2013-11-27 09:33:00,39.7,20.6,30.14,ESE,115,5.8,5.8,46,0.00,FEW,,0.00,WeatherDisplay:10.37,2013-11-27 16:33:00,
2013-11-27 09:38:00,40.6,20.4,30.14,ESE,118,3.5,3.5,44,0.00,FEW,,0.00,WeatherDisplay:10.37,2013-11-27 16:38:00,
2013-11-27 09:43:00,41.5,20.6,30.14,ESE,121,3.5,3.5,43,0.00,FEW,,0.00,WeatherDisplay:10.37,2013-11-27 16:43:00,
2013-11-27 09:48:00,42.2,20.2,30.14,SE,144,3.5,3.5,41,0.00,FEW,,0.00,WeatherDisplay:10.37,2013-11-27 16:48:00,
2013-11-27 09:53:00,42.9,20.8,30.13,SE,144,5.8,5.8,41,0.00,FEW,,0.00,WeatherDisplay:10.37,2013-11-27 16:53:00,
2013-11-27 09:58:00,43.7,20.3,30.13,SE,146,5.8,5.8,39,0.00,FEW,,0.00,WeatherDisplay:10.37,2013-11-27 16:58:00,
2013-11-27 10:03:00,44.3,20.9,30.14,SE,146,4.6,4.6,39,0.00,FEW,,0.00,WeatherDisplay:10.37,2013-11-27 17:03:00,
2013-11-27 10:08:00,44.8,20.1,30.14,SE,146,9.0,9.0,37,0.00,FEW,,0.00,WeatherDisplay:10.37,2013-11-27 17:08:00,
2013-11-27 10:13:00,45.3,19.9,30.13,SE,146,4.6,4.6,36,0.00,FEW,,0.00,WeatherDisplay:10.37,2013-11-27 17:13:00,
2013-11-27 10:18:00,45.8,20.3,30.13,SE,146,4.6,4.6,36,0.00,FEW,,0.00,WeatherDisplay:10.37,2013-11-27 17:18:00,
2013-11-27 10:23:00,46.4,19.5,30.13,SE,133,3.5,3.5,34,0.00,FEW,,0.00,WeatherDisplay:10.37,2013-11-27 17:23:00,
2013-11-27 10:28:00,46.9,20.0,30.12,SE,142,10.4,10.4,34,0.00,FEW,,0.00,WeatherDisplay:10.37,2013-11-27 17:28:00,
2013-11-27 10:33:00,47.4,19.7,30.12,SE,144,5.8,5.8,33,0.00,FEW,,0.00,WeatherDisplay:10.37,2013-11-27 17:33:00,
2013-11-27 10:38:00,47.9,20.1,30.12,SE,144,3.5,3.5,33,0.00,FEW,,0.00,WeatherDisplay:10.37,2013-11-27 17:38:00,
2013-11-27 10:43:00,48.5,19.9,30.12,SE,146,4.6,4.6,32,0.00,FEW,,0.00,WeatherDisplay:10.37,2013-11-27 17:43:00,
2013-11-27 10:48:00,48.9,20.3,30.11,SE,146,5.8,5.8,32,0.00,FEW,,0.00,WeatherDisplay:10.37,2013-11-27 17:48:00,
2013-11-27 10:54:00,49.5,20.1,30.11,SE,146,4.6,4.6,31,0.00,FEW,,0.00,WeatherDisplay:10.37,2013-11-27 17:54:00,
2013-11-27 10:59:00,49.9,20.4,30.10,SSE,148,3.5,3.5,31,0.00,FEW,,0.00,WeatherDisplay:10.37,2013-11-27 17:59:00,
2013-11-27 11:04:00,50.6,20.3,30.10,SE,136,3.5,3.5,30,0.00,FEW,,0.00,WeatherDisplay:10.37,2013-11-27 18:04:00,
2013-11-27 11:09:00,51.2,20.0,30.10,SE,136,6.9,6.9,29,0.00,FEW,,0.00,WeatherDisplay:10.37,2013-11-27 18:09:00,
2013-11-27 11:14:00,52.0,20.7,30.09,SE,125,4.6,4.6,29,0.00,FEW,,0.00,WeatherDisplay:10.37,2013-11-27 18:14:00,
2013-11-27 11:19:00,52.7,21.3,30.09,SE,126,4.6,4.6,29,0.00,FEW,,0.00,WeatherDisplay:10.37,2013-11-27 18:19:00,
2013-11-27 11:24:00,53.4,20.2,30.09,ESE,115,8.1,8.1,27,0.00,FEW,,0.00,WeatherDisplay:10.37,2013-11-27 18:24:00,
2013-11-27 11:29:00,54.1,21.7,30.09,ESE,115,2.3,2.3,28,0.00,FEW,,0.00,WeatherDisplay:10.37,2013-11-27 18:29:00,
2013-11-27 11:34:00,54.8,21.4,30.09,ESE,114,5.8,5.8,27,0.00,FEW,,0.00,WeatherDisplay:10.37,2013-11-27 18:34:00,
2013-11-27 11:39:00,55.4,21.0,30.08,ESE,114,3.5,3.5,26,0.00,FEW,,0.00,WeatherDisplay:10.37,2013-11-27 18:39:00,
2013-11-27 11:44:00,56.2,21.7,30.08,ESE,114,6.9,6.9,26,0.00,FEW,,0.00,WeatherDisplay:10.37,2013-11-27 18:44:00,
2013-11-27 11:49:00,56.9,22.3,30.07,ESE,114,3.5,3.5,26,0.00,FEW,,0.00,WeatherDisplay:10.37,2013-11-27 18:49:00,
2013-11-27 11:54:00,57.6,22.0,30.09,ESE,113,3.5,3.5,25,0.00,FEW,,0.00,WeatherDisplay:10.37,2013-11-27 18:54:00,
2013-11-27 11:56:00,57.9,22.2,30.09,ESE,114,5.8,5.8,25,0.00,FEW,,0.00,WeatherDisplay:10.37,2013-11-27 18:56:00,
2013-11-27 12:01:00,58.6,22.8,30.08,SE,126,3.5,3.5,25,0.00,SCT,,0.00,WeatherDisplay:10.37,2013-11-27 19:01:00,
2013-11-27 12:06:00,59.2,22.4,30.08,SE,126,4.6,4.6,24,0.00,SCT,,0.00,WeatherDisplay:10.37,2013-11-27 19:06:00,
2013-11-27 12:11:00,59.8,21.9,30.08,SE,125,3.5,3.5,23,0.00,SCT,,0.00,WeatherDisplay:10.37,2013-11-27 19:11:00,
2013-11-27 12:16:00,60.2,23.2,30.07,SE,124,3.5,3.5,24,0.00,SCT,,0.00,WeatherDisplay:10.37,2013-11-27 19:16:00,
2013-11-27 12:21:00,60.6,22.6,30.07,ESE,123,3.5,3.5,23,0.00,SCT,,0.00,WeatherDisplay:10.37,2013-11-27 19:21:00,
2013-11-27 12:26:00,60.8,21.7,30.07,ESE,115,3.5,3.5,22,0.00,SCT,,0.00,WeatherDisplay:10.37,2013-11-27 19:26:00,
2013-11-27 12:31:00,61.2,22.0,30.07,ESE,115,3.5,3.5,22,0.00,SCT,,0.00,WeatherDisplay:10.37,2013-11-27 19:31:00,
2013-11-27 12:36:00,61.5,22.3,30.07,ESE,115,1.2,0.0,22,0.00,SCT,,0.00,WeatherDisplay:10.37,2013-11-27 19:36:00,
2013-11-27 12:41:00,61.8,21.4,30.07,ESE,115,3.5,3.5,21,0.00,SCT,,0.00,WeatherDisplay:10.37,2013-11-27 19:41:00,
2013-11-27 12:46:00,62.1,21.7,30.06,ESE,115,3.5,3.5,21,0.00,SCT,,0.00,WeatherDisplay:10.37,2013-11-27 19:46:00,
2013-11-27 12:51:00,62.6,22.1,30.06,ESE,116,2.3,2.3,21,0.00,SCT,,0.00,WeatherDisplay:10.37,2013-11-27 19:51:00,
2013-11-27 12:56:00,63.0,21.2,30.06,ESE,115,3.5,3.5,20,0.00,SCT,,0.00,WeatherDisplay:10.37,2013-11-27 19:56:00,
2013-11-27 13:01:00,62.1,21.7,30.07,ESE,115,1.0,1.0,21,0.00,SCT,,0.00,WeatherDisplay:10.37,2013-11-27 20:01:00,
2013-11-27 13:06:00,62.4,21.9,30.07,ESE,111,5.8,5.8,21,0.00,SCT,,0.00,WeatherDisplay:10.37,2013-11-27 20:06:00,
2013-11-27 13:11:00,62.1,22.8,30.07,ESE,111,3.5,3.5,22,0.00,SCT,,0.00,WeatherDisplay:10.37,2013-11-27 20:11:00,
2013-11-27 13:16:00,62.3,21.8,30.07,ESE,111,1.2,1.2,21,0.00,SCT,,0.00,WeatherDisplay:10.37,2013-11-27 20:16:00,
2013-11-27 13:21:00,63.0,22.4,30.06,ESE,111,3.5,3.5,21,0.00,SCT,,0.00,WeatherDisplay:10.37,2013-11-27 20:21:00,
2013-11-27 13:27:00,62.1,20.5,30.06,ESE,111,1.2,1.2,20,0.00,SCT,,0.00,WeatherDisplay:10.37,2013-11-27 20:27:00,
2013-11-27 13:32:00,63.0,21.2,30.06,ESE,111,2.3,0.0,20,0.00,SCT,,0.00,WeatherDisplay:10.37,2013-11-27 20:32:00,
2013-11-27 13:37:00,63.1,22.5,30.06,ESE,111,0.0,0.0,21,0.00,SCT,,0.00,WeatherDisplay:10.37,2013-11-27 20:37:00,
2013-11-27 13:42:00,63.4,21.6,30.05,ESE,109,3.5,3.5,20,0.00,SCT,,0.00,WeatherDisplay:10.37,2013-11-27 20:42:00,
2013-11-27 13:47:00,63.2,21.4,30.06,East,92,8.1,8.1,20,0.00,SCT,,0.00,WeatherDisplay:10.37,2013-11-27 20:47:00,
2013-11-27 13:52:00,62.9,20.0,30.05,East,86,6.9,6.9,19,0.00,SCT,,0.00,WeatherDisplay:10.37,2013-11-27 20:52:00,
2013-11-27 13:57:00,62.3,19.5,30.05,East,82,5.0,5.0,19,0.00,SCT,,0.00,WeatherDisplay:10.37,2013-11-27 20:57:00,
2013-11-27 14:02:00,62.9,20.0,30.05,East,81,3.5,0.0,19,0.00,SCT,,0.00,WeatherDisplay:10.37,2013-11-27 21:02:00,
2013-11-27 14:07:00,63.4,21.6,30.05,East,81,0.0,0.0,20,0.00,SCT,,0.00,WeatherDisplay:10.37,2013-11-27 21:07:00,
2013-11-27 14:12:00,64.0,23.2,30.05,East,81,3.5,3.5,21,0.00,SCT,,0.00,WeatherDisplay:10.37,2013-11-27 21:12:00,
2013-11-27 14:17:00,63.7,21.8,30.05,ENE,74,4.6,4.6,20,0.00,SCT,,0.00,WeatherDisplay:10.37,2013-11-27 21:17:00,
2013-11-27 14:22:00,62.9,21.2,30.05,ENE,74,0.0,0.0,20,0.00,SCT,,0.00,WeatherDisplay:10.37,2013-11-27 21:22:00,
2013-11-27 14:27:00,62.9,21.2,30.05,ENE,74,2.3,2.3,20,0.00,SCT,,0.00,WeatherDisplay:10.37,2013-11-27 21:27:00,
2013-11-27 14:32:00,62.4,21.9,30.05,ENE,73,3.5,3.5,21,0.00,SCT,,0.00,WeatherDisplay:10.37,2013-11-27 21:32:00,
2013-11-27 14:37:00,61.8,21.4,30.05,ENE,67,3.5,3.5,21,0.00,SCT,,0.00,WeatherDisplay:10.37,2013-11-27 21:37:00,
2013-11-27 14:42:00,61.7,22.4,30.05,ENE,67,3.0,3.0,22,0.00,SCT,,0.00,WeatherDisplay:10.37,2013-11-27 21:42:00,
2013-11-27 14:47:00,61.6,22.3,30.05,ENE,67,5.0,5.0,22,0.00,SCT,,0.00,WeatherDisplay:10.37,2013-11-27 21:47:00,
2013-11-27 14:52:00,61.3,21.0,30.05,ENE,67,3.5,3.5,21,0.00,SCT,,0.00,WeatherDisplay:10.37,2013-11-27 21:52:00,
2013-11-27 14:57:00,61.3,21.0,30.05,ENE,67,3.5,3.5,21,0.00,SCT,,0.00,WeatherDisplay:10.37,2013-11-27 21:57:00,
2013-11-27 15:02:00,61.1,21.9,30.05,ENE,67,3.5,3.5,22,0.00,SCT,,0.00,WeatherDisplay:10.37,2013-11-27 22:02:00,
2013-11-27 15:07:00,61.0,22.9,30.05,ENE,67,3.5,3.5,23,0.00,SCT,,0.00,WeatherDisplay:10.37,2013-11-27 22:07:00,
2013-11-27 15:12:00,60.7,22.6,30.05,ENE,67,4.6,4.6,23,0.00,SCT,,0.00,WeatherDisplay:10.37,2013-11-27 22:12:00,
2013-11-27 15:17:00,60.5,22.5,30.05,ENE,65,4.6,4.6,23,0.00,SCT,,0.00,WeatherDisplay:10.37,2013-11-27 22:17:00,
2013-11-27 15:22:00,60.1,22.1,30.05,ENE,61,5.8,5.8,23,0.00,SCT,,0.00,WeatherDisplay:10.37,2013-11-27 22:22:00,
2013-11-27 15:27:00,59.9,22.0,30.05,ENE,58,3.5,3.5,23,0.00,SCT,,0.00,WeatherDisplay:10.37,2013-11-27 22:27:00,
2013-11-27 15:32:00,59.8,21.9,30.05,NE,42,9.2,9.2,23,0.00,SCT,,0.00,WeatherDisplay:10.37,2013-11-27 22:32:00,
2013-11-27 15:37:00,59.6,20.7,30.05,NNE,28,6.9,6.9,22,0.00,SCT,,0.00,WeatherDisplay:10.37,2013-11-27 22:37:00,
2013-11-27 15:42:00,59.3,21.5,30.06,NNE,28,5.8,5.8,23,0.00,SCT,,0.00,WeatherDisplay:10.37,2013-11-27 22:42:00,
2013-11-27 15:47:00,59.0,21.2,30.06,NNE,17,8.1,8.1,23,0.00,SCT,,0.00,WeatherDisplay:10.37,2013-11-27 22:47:00,
2013-11-27 15:52:00,58.7,22.0,30.06,North,11,4.6,4.6,24,0.00,SCT,,0.00,WeatherDisplay:10.37,2013-11-27 22:52:00,
2013-11-27 15:57:00,58.1,21.4,30.06,North,9,9.2,9.2,24,0.00,SCT,,0.00,WeatherDisplay:10.37,2013-11-27 22:57:00,
2013-11-27 16:02:00,58.0,21.4,30.07,North,9,3.5,3.5,24,0.00,SCT,,0.00,WeatherDisplay:10.37,2013-11-27 23:02:00,
2013-11-27 16:07:00,57.8,21.2,30.07,North,9,1.2,0.0,24,0.00,SCT,,0.00,WeatherDisplay:10.37,2013-11-27 23:07:00,
2013-11-27 16:12:00,57.6,21.0,30.07,North,9,3.0,3.0,24,0.00,SCT,,0.00,WeatherDisplay:10.37,2013-11-27 23:12:00,
2013-11-27 16:17:00,57.3,20.8,30.07,North,9,3.5,3.5,24,0.00,SCT,,0.00,WeatherDisplay:10.37,2013-11-27 23:17:00,
2013-11-27 16:22:00,57.0,21.5,30.07,North,9,3.0,3.0,25,0.00,SCT,,0.00,WeatherDisplay:10.37,2013-11-27 23:22:00,
2013-11-27 16:27:00,56.6,21.1,30.06,North,9,4.0,4.0,25,0.00,SCT,,0.00,WeatherDisplay:10.37,2013-11-27 23:27:00,
2013-11-27 16:32:00,56.2,21.7,30.06,North,9,1.2,1.2,26,0.00,SCT,,0.00,WeatherDisplay:10.37,2013-11-27 23:32:00,
2013-11-27 16:37:00,55.8,21.4,30.07,North,9,0.0,0.0,26,0.00,SCT,,0.00,WeatherDisplay:10.37,2013-11-27 23:37:00,
2013-11-27 16:42:00,55.4,21.0,30.07,North,9,0.0,0.0,26,0.00,SCT,,0.00,WeatherDisplay:10.37,2013-11-27 23:42:00,
2013-11-27 16:47:00,55.0,21.6,30.07,North,9,0.0,0.0,27,0.00,SCT,,0.00,WeatherDisplay:10.37,2013-11-27 23:47:00,
2013-11-27 16:52:00,54.5,21.2,30.07,North,9,0.0,0.0,27,0.00,SCT,,0.00,WeatherDisplay:10.37,2013-11-27 23:52:00,
2013-11-27 16:57:00,53.9,21.5,30.07,North,9,0.0,0.0,28,0.00,SCT,,0.00,WeatherDisplay:10.37,2013-11-27 23:57:00,
2013-11-27 17:02:00,53.2,21.7,30.07,North,9,0.0,0.0,29,0.00,SCT,,0.00,WeatherDisplay:10.37,2013-11-28 00:02:00,
2013-11-27 17:07:00,52.6,21.2,30.07,North,9,0.0,0.0,29,0.00,SCT,,0.00,WeatherDisplay:10.37,2013-11-28 00:07:00,
2013-11-27 17:12:00,51.9,21.4,30.07,North,9,0.0,0.0,30,0.00,SCT,,0.00,WeatherDisplay:10.37,2013-11-28 00:12:00,
2013-11-27 17:17:00,51.2,21.6,30.08,North,9,0.0,0.0,31,0.00,SCT,,0.00,WeatherDisplay:10.37,2013-11-28 00:17:00,
2013-11-27 17:22:00,50.5,21.7,30.07,North,9,0.0,0.0,32,0.00,SCT,,0.00,WeatherDisplay:10.37,2013-11-28 00:22:00,
2013-11-27 17:27:00,49.8,21.8,30.07,North,9,0.0,0.0,33,0.00,SCT,,0.00,WeatherDisplay:10.37,2013-11-28 00:27:00,
2013-11-27 17:32:00,49.1,21.2,30.07,North,9,0.0,0.0,33,0.00,SCT,,0.00,WeatherDisplay:10.37,2013-11-28 00:32:00,
2013-11-27 17:37:00,48.5,21.4,30.08,North,9,0.0,0.0,34,0.00,SCT,,0.00,WeatherDisplay:10.37,2013-11-28 00:37:00,
2013-11-27 17:42:00,48.1,21.0,30.08,North,9,0.0,0.0,34,0.00,SCT,,0.00,WeatherDisplay:10.37,2013-11-28 00:42:00,
2013-11-27 17:47:00,47.7,21.3,30.08,North,9,0.0,0.0,35,0.00,SCT,,0.00,WeatherDisplay:10.37,2013-11-28 00:47:00,
2013-11-27 17:52:00,47.1,21.5,30.08,North,9,0.0,0.0,36,0.00,SCT,,0.00,WeatherDisplay:10.37,2013-11-28 00:52:00,
2013-11-27 17:57:00,46.6,21.0,30.08,North,9,0.0,0.0,36,0.00,SCT,,0.00,WeatherDisplay:10.37,2013-11-28 00:57:00,
2013-11-27 18:02:00,46.0,21.1,30.08,North,9,0.0,0.0,37,0.00,SCT,,0.00,WeatherDisplay:10.37,2013-11-28 01:02:00,
2013-11-27 18:07:00,45.5,21.3,30.08,North,9,0.0,0.0,38,0.00,SCT,,0.00,WeatherDisplay:10.37,2013-11-28 01:07:00,
2013-11-27 18:12:00,45.1,21.0,30.08,North,9,0.0,0.0,38,0.00,SCT,,0.00,WeatherDisplay:10.37,2013-11-28 01:12:00,
2013-11-27 18:17:00,44.7,20.6,30.08,North,9,1.2,0.0,38,0.00,SCT,,0.00,WeatherDisplay:10.37,2013-11-28 01:17:00,
2013-11-27 18:22:00,44.4,21.0,30.09,North,9,0.0,0.0,39,0.00,SCT,,0.00,WeatherDisplay:10.37,2013-11-28 01:22:00,
2013-11-27 18:27:00,44.1,21.3,30.09,North,9,0.0,0.0,40,0.00,SCT,,0.00,WeatherDisplay:10.37,2013-11-28 01:27:00,
2013-11-27 18:32:00,43.8,21.0,30.09,North,9,0.0,0.0,40,0.00,SCT,,0.00,WeatherDisplay:10.37,2013-11-28 01:32:00,
2013-11-27 18:37:00,43.4,21.2,30.09,North,9,0.0,0.0,41,0.00,SCT,,0.00,WeatherDisplay:10.37,2013-11-28 01:37:00,
2013-11-27 18:42:00,43.1,21.0,30.09,North,9,0.0,0.0,41,0.00,SCT,,0.00,WeatherDisplay:10.37,2013-11-28 01:42:00,
2013-11-27 18:47:00,42.7,21.2,30.09,North,9,1.2,0.0,42,0.00,SCT,,0.00,WeatherDisplay:10.37,2013-11-28 01:47:00,
2013-11-27 18:52:00,42.4,20.9,30.09,North,9,0.0,0.0,42,0.00,SCT,,0.00,WeatherDisplay:10.37,2013-11-28 01:52:00,
2013-11-27 18:58:00,42.2,21.3,30.09,North,9,0.0,0.0,43,0.00,SCT,,0.00,WeatherDisplay:10.37,2013-11-28 01:58:00,
2013-11-27 19:03:00,41.9,21.0,30.09,North,9,0.0,0.0,43,0.00,SCT,,0.00,WeatherDisplay:10.37,2013-11-28 02:03:00,
2013-11-27 19:08:00,41.7,20.8,30.09,North,9,0.0,0.0,43,0.00,SCT,,0.00,WeatherDisplay:10.37,2013-11-28 02:08:00,
2013-11-27 19:13:00,41.5,20.6,30.09,North,9,0.0,0.0,43,0.00,SCT,,0.00,WeatherDisplay:10.37,2013-11-28 02:13:00,
2013-11-27 19:18:00,41.2,20.9,30.09,North,9,0.0,0.0,44,0.00,SCT,,0.00,WeatherDisplay:10.37,2013-11-28 02:18:00,
2013-11-27 19:23:00,40.9,20.6,30.10,North,9,1.2,0.0,44,0.00,SCT,,0.00,WeatherDisplay:10.37,2013-11-28 02:23:00,
2013-11-27 19:28:00,40.7,20.5,30.10,North,9,0.0,0.0,44,0.00,SCT,,0.00,WeatherDisplay:10.37,2013-11-28 02:28:00,
2013-11-27 19:33:00,40.4,21.2,30.10,North,9,0.0,0.0,46,0.00,SCT,,0.00,WeatherDisplay:10.37,2013-11-28 02:33:00,
2013-11-27 19:38:00,40.1,21.0,30.10,North,9,0.0,0.0,46,0.00,SCT,,0.00,WeatherDisplay:10.37,2013-11-28 02:38:00,
2013-11-27 19:43:00,39.8,20.7,30.10,North,9,0.0,0.0,46,0.00,SCT,,0.00,WeatherDisplay:10.37,2013-11-28 02:43:00,
2013-11-27 19:48:00,39.5,20.4,30.10,North,9,0.0,0.0,46,0.00,SCT,,0.00,WeatherDisplay:10.37,2013-11-28 02:48:00,
2013-11-27 19:53:00,39.1,20.5,30.10,North,9,0.0,0.0,47,0.00,SCT,,0.00,WeatherDisplay:10.37,2013-11-28 02:53:00,
2013-11-27 19:58:00,38.8,20.3,30.10,North,9,0.0,0.0,47,0.00,SCT,,0.00,WeatherDisplay:10.37,2013-11-28 02:58:00,
2013-11-27 20:03:00,38.5,20.0,30.10,North,9,0.0,0.0,47,0.00,SCT,,0.00,WeatherDisplay:10.37,2013-11-28 03:03:00,
2013-11-27 20:08:00,38.3,20.3,30.10,North,9,0.0,0.0,48,0.00,SCT,,0.00,WeatherDisplay:10.37,2013-11-28 03:08:00,
2013-11-27 20:13:00,38.0,20.5,30.10,North,9,0.0,0.0,49,0.00,SCT,,0.00,WeatherDisplay:10.37,2013-11-28 03:13:00,
2013-11-27 20:18:00,37.7,20.7,30.11,North,9,0.0,0.0,50,0.00,SCT,,0.00,WeatherDisplay:10.37,2013-11-28 03:18:00,
2013-11-27 20:23:00,37.4,20.4,30.11,North,9,0.0,0.0,50,0.00,SCT,,0.00,WeatherDisplay:10.37,2013-11-28 03:23:00,
2013-11-27 20:28:00,37.2,20.7,30.11,North,9,0.0,0.0,51,0.00,SCT,,0.00,WeatherDisplay:10.37,2013-11-28 03:28:00,
2013-11-27 20:33:00,36.9,20.9,30.11,North,9,0.0,0.0,52,0.00,SCT,,0.00,WeatherDisplay:10.37,2013-11-28 03:33:00,
2013-11-27 20:38:00,36.6,21.1,30.11,North,9,0.0,0.0,53,0.00,SCT,,0.00,WeatherDisplay:10.37,2013-11-28 03:38:00,
2013-11-27 20:43:00,36.4,20.4,30.12,North,9,0.0,0.0,52,0.00,SCT,,0.00,WeatherDisplay:10.37,2013-11-28 03:43:00,
2013-11-27 20:48:00,36.2,20.2,30.12,North,9,0.0,0.0,52,0.00,SCT,,0.00,WeatherDisplay:10.37,2013-11-28 03:48:00,
2013-11-27 20:53:00,36.0,20.5,30.12,North,9,0.0,0.0,53,0.00,SCT,,0.00,WeatherDisplay:10.37,2013-11-28 03:53:00,
2013-11-27 20:58:00,35.8,20.3,30.12,North,9,0.0,0.0,53,0.00,SCT,,0.00,WeatherDisplay:10.37,2013-11-28 03:58:00,
2013-11-27 21:03:00,35.5,20.0,30.12,North,9,0.0,0.0,53,0.00,SCT,,0.00,WeatherDisplay:10.37,2013-11-28 04:03:00,
2013-11-27 21:08:00,35.3,20.7,30.12,North,9,0.0,0.0,55,0.00,SCT,,0.00,WeatherDisplay:10.37,2013-11-28 04:08:00,
2013-11-27 21:13:00,35.2,20.6,30.12,North,9,0.0,0.0,55,0.00,SCT,,0.00,WeatherDisplay:10.37,2013-11-28 04:13:00,
2013-11-27 21:18:00,35.1,20.5,30.12,North,9,0.0,0.0,55,0.00,SCT,,0.00,WeatherDisplay:10.37,2013-11-28 04:18:00,
2013-11-27 21:23:00,34.9,20.4,30.13,North,9,0.0,0.0,55,0.00,SCT,,0.00,WeatherDisplay:10.37,2013-11-28 04:23:00,
2013-11-27 21:28:00,34.8,20.7,30.13,North,9,0.0,0.0,56,0.00,SCT,,0.00,WeatherDisplay:10.37,2013-11-28 04:28:00,
2013-11-27 21:33:00,34.6,20.9,30.13,North,9,0.0,0.0,57,0.00,SCT,,0.00,WeatherDisplay:10.37,2013-11-28 04:33:00,
2013-11-27 21:38:00,34.5,20.8,30.13,North,9,0.0,0.0,57,0.00,SCT,,0.00,WeatherDisplay:10.37,2013-11-28 04:38:00,
2013-11-27 21:43:00,34.3,21.0,30.13,North,9,0.0,0.0,58,0.00,SCT,,0.00,WeatherDisplay:10.37,2013-11-28 04:43:00,
2013-11-27 21:48:00,34.2,20.9,30.14,North,9,0.0,0.0,58,0.00,SCT,,0.00,WeatherDisplay:10.37,2013-11-28 04:48:00,
2013-11-27 21:53:00,34.1,21.3,30.14,North,9,0.0,0.0,59,0.00,SCT,,0.00,WeatherDisplay:10.37,2013-11-28 04:53:00,
2013-11-27 21:58:00,33.9,21.5,30.14,North,9,0.0,0.0,60,0.00,SCT,,0.00,WeatherDisplay:10.37,2013-11-28 04:58:00,
2013-11-27 22:01:00,33.8,21.4,30.14,North,9,0.0,0.0,60,0.00,SCT,,0.00,WeatherDisplay:10.37,2013-11-28 05:01:00,
2013-11-27 22:06:00,33.6,21.2,30.14,North,9,0.0,0.0,60,0.00,SCT,,0.00,WeatherDisplay:10.37,2013-11-28 05:06:00,
2013-11-27 22:11:00,33.4,21.4,30.14,North,9,0.0,0.0,61,0.00,SCT,,0.00,WeatherDisplay:10.37,2013-11-28 05:11:00,
2013-11-27 22:16:00,33.2,21.6,30.14,North,9,2.3,0.0,62,0.00,SCT,,0.00,WeatherDisplay:10.37,2013-11-28 05:16:00,
2013-11-27 22:21:00,33.0,21.4,30.15,North,9,0.0,0.0,62,0.00,SCT,,0.00,WeatherDisplay:10.37,2013-11-28 05:21:00,
2013-11-27 22:27:00,32.9,21.3,30.15,North,9,0.0,0.0,62,0.00,SCT,,0.00,WeatherDisplay:10.37,2013-11-28 05:27:00,
2013-11-27 22:32:00,32.7,21.1,30.15,North,9,0.0,0.0,62,0.00,SCT,,0.00,WeatherDisplay:10.37,2013-11-28 05:32:00,
2013-11-27 22:37:00,32.6,21.0,30.15,North,9,0.0,0.0,62,0.00,SCT,,0.00,WeatherDisplay:10.37,2013-11-28 05:37:00,
2013-11-27 22:42:00,32.4,21.2,30.16,North,9,0.0,0.0,63,0.00,SCT,,0.00,WeatherDisplay:10.37,2013-11-28 05:42:00,
2013-11-27 22:47:00,32.3,21.1,30.15,North,9,0.0,0.0,63,0.00,SCT,,0.00,WeatherDisplay:10.37,2013-11-28 05:47:00,
2013-11-27 22:52:00,32.1,20.9,30.16,North,9,0.0,0.0,63,0.00,SCT,,0.00,WeatherDisplay:10.37,2013-11-28 05:52:00,
2013-11-27 22:57:00,32.0,20.8,30.16,North,9,0.0,0.0,63,0.00,SCT,,0.00,WeatherDisplay:10.37,2013-11-28 05:57:00,
2013-11-27 23:02:00,31.8,20.6,30.17,North,9,0.0,0.0,63,0.00,CLR,,0.00,WeatherDisplay:10.37,2013-11-28 06:02:00,
2013-11-27 23:07:00,31.7,20.5,30.17,North,9,0.0,0.0,63,0.00,CLR,,0.00,WeatherDisplay:10.37,2013-11-28 06:07:00,
2013-11-27 23:12:00,31.5,20.3,30.17,North,9,0.0,0.0,63,0.00,CLR,,0.00,WeatherDisplay:10.37,2013-11-28 06:12:00,
2013-11-27 23:17:00,31.4,20.2,30.17,North,9,0.0,0.0,63,0.00,CLR,,0.00,WeatherDisplay:10.37,2013-11-28 06:17:00,
2013-11-27 23:22:00,31.2,20.8,30.17,North,9,0.0,0.0,65,0.00,CLR,,0.00,WeatherDisplay:10.37,2013-11-28 06:22:00,
2013-11-27 23:27:00,31.1,20.7,30.18,North,9,0.0,0.0,65,0.00,CLR,,0.00,WeatherDisplay:10.37,2013-11-28 06:27:00,
2013-11-27 23:32:00,30.9,20.5,30.17,North,5,0.0,0.0,65,0.00,CLR,,0.00,WeatherDisplay:10.37,2013-11-28 06:32:00,
2013-11-27 23:37:00,30.8,20.4,30.18,North,9,0.0,0.0,65,0.00,CLR,,0.00,WeatherDisplay:10.37,2013-11-28 06:37:00,
2013-11-27 23:42:00,30.7,20.3,30.18,North,9,0.0,0.0,65,0.00,CLR,,0.00,WeatherDisplay:10.37,2013-11-28 06:42:00,
2013-11-27 23:47:00,30.5,20.5,30.18,North,9,0.0,0.0,66,0.00,CLR,,0.00,WeatherDisplay:10.37,2013-11-28 06:47:00,
2013-11-27 23:52:00,30.4,20.4,30.18,North,9,0.0,0.0,66,0.00,CLR,,0.00,WeatherDisplay:10.37,2013-11-28 06:52:00,
2013-11-27 23:57:00,30.2,20.2,30.18,North,9,2.3,2.3,66,0.00,CLR,,0.00,WeatherDisplay:10.37,2013-11-28 06:57:00,